User: anonymous   Login
Location: Oshawa
(43.9000°N, 78.8670°W)
Time: 03:07:29
(UTC-04:00)
Language:

Cosmos 1805 Rocket - Orbit

View from above orbital plane
View from above orbital plane
View from above satellite
View from above satellite

Ground track
Ground track

The orbit data is extracted from the following two-line orbital elements,

1 17192U 86097B   16240.96323426  .00000096  00000-0  87910-5 0  9993
2 17192  82.5088 171.7097 0016763 353.5086  51.3015 14.83457264605200
Epoch (UTC): 27 August 2016 23:07:03
Eccentricity: 0.0016763
inclination: 82.5088°
perigee height: 607 km
apogee height: 630 km
right ascension of ascending node: 171.7097°
argument of perigee: 353.5086°
revolutions per day: 14.83457264
mean anomaly at epoch: 51.3015°
orbit number at epoch: 60520

The dashed part of the orbit path shows where the satellite is in the earth's shadow,  

DLR